EN

Hourly Weather Bolshie Kaybicy

Today, 31 October, Saturday

Time Temperature Precipitation Wind Pressure Humidity
00:00 +3°C° 0 mm 3 mps 756 mmHg 86%
01:00 +3°C° 0.3 mm 3 mps 756 mmHg 87%
02:00 +3°C° 0.3 mm 3 mps 756 mmHg 89%
03:00 +3°C° 0.3 mm 3 mps 756 mmHg 90%
04:00 +3°C° 0.2 mm 3 mps 756 mmHg 90%
05:00 +3°C° 0.2 mm 3 mps 755 mmHg 90%
06:00 +3°C° 0.2 mm 3 mps 755 mmHg 90%
07:00 +3°C° 0.4 mm 3 mps 755 mmHg 91%
08:00 +3°C° 0.4 mm 3 mps 755 mmHg 92%
09:00 +3°C° 0.4 mm 3 mps 755 mmHg 93%
10:00 +3°C° 0.3 mm 3 mps 755 mmHg 93%
11:00 +3°C° 0.3 mm 3 mps 755 mmHg 93%
12:00 +4°C° 0.3 mm 3 mps 755 mmHg 93%
13:00 +5°C° 0 mm 2 mps 755 mmHg 93%
14:00 +5°C° 0 mm 2 mps 755 mmHg 93%
15:00 +5°C° 0 mm 2 mps 755 mmHg 93%
16:00 +6°C° 0 mm 1 mps 755 mmHg 94%
17:00 +6°C° 0 mm 1 mps 756 mmHg 94%
18:00 +6°C° 0 mm 1 mps 756 mmHg 95%
19:00 +6°C° 0 mm 1 mps 756 mmHg 95%
20:00 +5°C° 0 mm 1 mps 756 mmHg 95%
21:00 +5°C° 0 mm 1 mps 756 mmHg 95%
22:00 +4°C° 0 mm 2 mps 757 mmHg 95%
23:00 +4°C° 0 mm 2 mps 757 mmHg 94%

Tomorrow, 1 November, Sunday

Time Temperature Precipitation Wind Pressure Humidity
00:00 +4°C° 0 mm 2 mps 757 mmHg 94%
01:00 +4°C° 0 mm 2 mps 757 mmHg 94%
02:00 +3°C° 0 mm 3 mps 758 mmHg 94%
03:00 +3°C° 0 mm 3 mps 758 mmHg 94%
04:00 +3°C° 0 mm 3 mps 759 mmHg 93%
05:00 +3°C° 0 mm 3 mps 759 mmHg 93%
06:00 +3°C° 0 mm 3 mps 759 mmHg 92%
07:00 +3°C° 0 mm 3 mps 760 mmHg 89%
08:00 +3°C° 0 mm 4 mps 760 mmHg 86%
09:00 +3°C° 0 mm 4 mps 760 mmHg 83%
10:00 +3°C° 0 mm 4 mps 761 mmHg 81%
11:00 +3°C° 0 mm 4 mps 761 mmHg 79%
12:00 +3°C° 0 mm 4 mps 761 mmHg 77%
13:00 +3°C° 0 mm 4 mps 761 mmHg 77%
14:00 +3°C° 0 mm 4 mps 761 mmHg 77%
15:00 +3°C° 0 mm 3 mps 761 mmHg 77%
16:00 +3°C° 0 mm 3 mps 761 mmHg 78%
17:00 +2°C° 0 mm 3 mps 761 mmHg 79%
18:00 +2°C° 0 mm 3 mps 762 mmHg 81%
19:00 +2°C° 0 mm 3 mps 762 mmHg 80%
20:00 +3°C° 0 mm 2 mps 762 mmHg 80%
21:00 +3°C° 0 mm 2 mps 762 mmHg 80%
22:00 +2°C° 0 mm 2 mps 761 mmHg 81%
23:00 +1°C° 0 mm 3 mps 761 mmHg 83%

Day after tomorrow, 2 November, Monday

Time Temperature Precipitation Wind Pressure Humidity
00:00 0°C° 0 mm 3 mps 761 mmHg 84%
01:00 0°C° 0 mm 3 mps 761 mmHg 87%
02:00 -1°C° 0 mm 2 mps 761 mmHg 89%
03:00 -1°C° 0 mm 2 mps 761 mmHg 92%
04:00 -1°C° 0 mm 2 mps 761 mmHg 93%
05:00 -1°C° 0 mm 2 mps 761 mmHg 94%
06:00 -1°C° 0 mm 2 mps 761 mmHg 94%
07:00 -1°C° 0 mm 3 mps 761 mmHg 92%
08:00 0°C° 0 mm 3 mps 761 mmHg 90%
09:00 0°C° 0 mm 3 mps 761 mmHg 87%
10:00 +1°C° 0 mm 3 mps 761 mmHg 86%
11:00 +1°C° 0 mm 4 mps 761 mmHg 84%
12:00 +1°C° 0 mm 4 mps 761 mmHg 83%
13:00 +1°C° 0 mm 4 mps 761 mmHg 83%
14:00 +1°C° 0 mm 4 mps 761 mmHg 84%
15:00 +1°C° 0 mm 4 mps 761 mmHg 84%
16:00 +1°C° 0 mm 4 mps 761 mmHg 85%
17:00 0°C° 0 mm 4 mps 761 mmHg 86%
18:00 0°C° 0 mm 4 mps 760 mmHg 86%
19:00 0°C° 0 mm 4 mps 761 mmHg 85%
20:00 0°C° 0 mm 4 mps 761 mmHg 84%
21:00 0°C° 0 mm 4 mps 761 mmHg 83%
22:00 0°C° 0 mm 4 mps 761 mmHg 83%
23:00 0°C° 0 mm 4 mps 761 mmHg 84%

3 November, Tuesday

Time Temperature Precipitation Wind Pressure Humidity
00:00 0°C° 0 mm 4 mps 761 mmHg 85%
01:00 0°C° 0.2 mm 4 mps 761 mmHg 86%
02:00 0°C° 0.2 mm 4 mps 761 mmHg 87%
03:00 0°C° 0.2 mm 4 mps 761 mmHg 88%
04:00 0°C° 0 mm 4 mps 761 mmHg 89%
05:00 -1°C° 0 mm 4 mps 761 mmHg 89%
06:00 -1°C° 0 mm 4 mps 761 mmHg 90%
07:00 -1°C° 0 mm 4 mps 761 mmHg 88%
08:00 0°C° 0 mm 4 mps 761 mmHg 87%
09:00 +1°C° 0 mm 4 mps 761 mmHg 85%
10:00 +1°C° 0 mm 4 mps 761 mmHg 83%
11:00 +3°C° 0 mm 4 mps 761 mmHg 80%
12:00 +4°C° 0 mm 4 mps 761 mmHg 78%
13:00 +4°C° 0 mm 4 mps 761 mmHg 79%
14:00 +4°C° 0 mm 3 mps 761 mmHg 81%
15:00 +4°C° 0 mm 3 mps 761 mmHg 82%
16:00 +3°C° 0 mm 3 mps 761 mmHg 85%
17:00 +4°C° 0 mm 2 mps 761 mmHg 87%
18:00 +3°C° 0 mm 2 mps 761 mmHg 90%
19:00 +3°C° 0 mm 2 mps 761 mmHg 91%
20:00 +3°C° 0 mm 2 mps 761 mmHg 91%
21:00 +4°C° 0 mm 1 mps 761 mmHg 92%
22:00 +4°C° 0 mm 1 mps 761 mmHg 92%
23:00 +4°C° 0 mm 1 mps 761 mmHg 92%

4 November, Wednesday

Time Temperature Precipitation Wind Pressure Humidity
00:00 +5°C° 0 mm 1 mps 761 mmHg 92%
01:00 +5°C° 0 mm 1 mps 761 mmHg 91%
02:00 +4°C° 0 mm 1 mps 761 mmHg 91%
03:00 +4°C° 0 mm 1 mps 761 mmHg 91%
04:00 +4°C° 0 mm 1 mps 761 mmHg 91%
05:00 +4°C° 0 mm 1 mps 761 mmHg 91%
06:00 +4°C° 0 mm 1 mps 761 mmHg 91%
07:00 +5°C° 0 mm 1 mps 761 mmHg 91%
08:00 +5°C° 0 mm 1 mps 761 mmHg 90%
09:00 +6°C° 0 mm 1 mps 761 mmHg 90%
10:00 +7°C° 0 mm 1 mps 761 mmHg 87%
11:00 +8°C° 0 mm 1 mps 761 mmHg 85%
12:00 +8°C° 0 mm 1 mps 762 mmHg 82%
13:00 +8°C° 0 mm 1 mps 762 mmHg 84%
14:00 +7°C° 0 mm 0 mps 762 mmHg 85%
15:00 +7°C° 0 mm 0 mps 762 mmHg 87%
16:00 +6°C° 0 mm 0 mps 762 mmHg 89%
17:00 +5°C° 0 mm 0 mps 762 mmHg 90%
18:00 +6°C° 0 mm 1 mps 762 mmHg 92%
19:00 +5°C° 0 mm 1 mps 762 mmHg 92%
20:00 +5°C° 0 mm 1 mps 762 mmHg 93%
21:00 +5°C° 0 mm 1 mps 762 mmHg 93%
22:00 +5°C° 0 mm 1 mps 762 mmHg 93%
23:00 +4°C° 0 mm 1 mps 762 mmHg 93%

5 November, Thursday

Time Temperature Precipitation Wind Pressure Humidity
00:00 +4°C° 0 mm 1 mps 762 mmHg 93%
01:00 +4°C° 0 mm 1 mps 762 mmHg 93%
02:00 +3°C° 0 mm 0 mps 762 mmHg 93%
03:00 +3°C° 0 mm 0 mps 762 mmHg 93%
04:00 +3°C° 0 mm 0 mps 762 mmHg 94%
05:00 +2°C° 0 mm 0 mps 761 mmHg 94%
06:00 +2°C° 0 mm 0 mps 761 mmHg 94%
07:00 +3°C° 0 mm 0 mps 761 mmHg 94%
08:00 +4°C° 0 mm 1 mps 761 mmHg 93%
09:00 +5°C° 0 mm 1 mps 761 mmHg 93%
10:00 +6°C° 0 mm 1 mps 761 mmHg 90%
11:00 +7°C° 0 mm 1 mps 761 mmHg 87%
12:00 +7°C° 0 mm 2 mps 760 mmHg 83%
13:00 +6°C° 0 mm 2 mps 760 mmHg 85%
14:00 +6°C° 0 mm 2 mps 760 mmHg 87%
15:00 +7°C° 0 mm 1 mps 760 mmHg 89%
16:00 +7°C° 0 mm 1 mps 760 mmHg 90%
17:00 +6°C° 0 mm 2 mps 760 mmHg 90%
18:00 +5°C° 0 mm 2 mps 759 mmHg 91%
19:00 +5°C° 0 mm 2 mps 759 mmHg 91%
20:00 +5°C° 0 mm 2 mps 759 mmHg 90%
21:00 +4°C° 0 mm 2 mps 759 mmHg 89%
22:00 +4°C° 0 mm 2 mps 759 mmHg 90%
23:00 +4°C° 0 mm 2 mps 758 mmHg 91%
Show more